| time (UTC) | temp F | wind direction | speed knots | gust knots | rain 1hr in | rain 24hr in | rain mn in | humidity % | barometer mb |
| 20260902022003 | 75 | 231 | 0.0 | 0.0 | 0.00 | 0.00 | 0.00 | 88 | 1015.7 |
| 20260902021508 | 75 | 231 | 0.0 | 0.0 | 0.00 | 0.00 | 0.00 | 88 | 1015.7 |
| 20260902021103 | 75 | 231 | 0.0 | 0.0 | 0.00 | 0.00 | 0.00 | 88 | 1015.6 |
| 20260902020505 | 76 | 231 | 0.0 | 0.0 | 0.00 | 0.00 | 0.00 | 88 | 1015.6 |
| 20260902020008 | 76 | 231 | 0.0 | 0.0 | 0.00 | 0.00 | 0.00 | 88 | 1015.5 |
| 20260902015602 | 76 | 231 | 0.0 | 0.0 | 0.00 | 0.00 | 0.00 | 87 | 1015.4 |
| 20260902015003 | 76 | 231 | 0.0 | 0.0 | 0.00 | 0.00 | 0.00 | 87 | 1015.3 |
| 20260902014511 | 76 | 231 | 0.0 | 0.0 | 0.00 | 0.00 | 0.00 | 87 | 1015.2 |
| 20260902014104 | 76 | 231 | 0.0 | 0.0 | 0.00 | 0.00 | 0.00 | 87 | 1015.2 |
| 20260902013503 | 77 | 231 | 0.0 | 0.0 | 0.00 | 0.00 | 0.00 | 86 | 1015.1 |
| 20260902013008 | 77 | 231 | 0.0 | 0.0 | 0.00 | 0.00 | 0.00 | 86 | 1015.0 |
| 20260902012603 | 77 | 231 | 0.0 | 0.0 | 0.00 | 0.00 | 0.00 | 86 | 1015.0 |
| 20260902012002 | 77 | 231 | 0.0 | 0.0 | 0.00 | 0.00 | 0.00 | 85 | 1015.0 |
| 20260902011512 | 77 | 231 | 0.0 | 0.0 | 0.00 | 0.00 | 0.00 | 85 | 1015.0 |
| 20260902011103 | 78 | 231 | 0.0 | 0.0 | 0.00 | 0.00 | 0.00 | 85 | 1015.0 |
| 20260902010502 | 78 | 231 | 0.0 | 0.0 | 0.00 | 0.00 | 0.00 | 84 | 1014.9 |
| 20260902010014 | 78 | 231 | 0.0 | 0.0 | 0.00 | 0.00 | 0.00 | 84 | 1014.9 |
| 20260902005603 | 78 | 231 | 0.0 | 0.0 | 0.00 | 0.00 | 0.00 | 84 | 1014.8 |
| 20260902005002 | 79 | 231 | 0.0 | 0.0 | 0.00 | 0.00 | 0.00 | 84 | 1014.7 |
| 20260902004508 | 79 | 231 | 0.0 | 0.0 | 0.00 | 0.00 | 0.00 | 83 | 1014.7 |
| 20260902004102 | 79 | 231 | 0.0 | 0.0 | 0.00 | 0.00 | 0.00 | 83 | 1014.7 |
| 20260902003502 | 79 | 231 | 0.0 | 0.0 | 0.00 | 0.00 | 0.00 | 82 | 1014.7 |
| 20260902003009 | 80 | 231 | 0.0 | 0.0 | 0.00 | 0.00 | 0.00 | 82 | 1014.7 |
| 20260902002604 | 80 | 231 | 0.0 | 0.0 | 0.00 | 0.00 | 0.00 | 81 | 1014.7 |
| 20260902002005 | 80 | 231 | 0.0 | 0.0 | 0.00 | 0.00 | 0.00 | 80 | 1014.6 |
| 20260902001509 | 81 | 231 | 0.0 | 0.0 | 0.00 | 0.00 | 0.00 | 79 | 1014.6 |
| 20260902001102 | 81 | 231 | 0.0 | 0.0 | 0.00 | 0.00 | 0.00 | 79 | 1014.6 |
| 20260902000502 | 82 | 231 | 0.0 | 0.0 | 0.00 | 0.00 | 0.00 | 78 | 1014.6 |
| 20260902000013 | 82 | 231 | 0.0 | 0.0 | 0.00 | 0.00 | 0.00 | 78 | 1014.6 |
| 20260901235603 | 82 | 231 | 0.0 | 0.0 | 0.00 | 0.00 | 0.00 | 77 | 1014.6 |
| 20260901235005 | 83 | 231 | 0.0 | 0.0 | 0.00 | 0.00 | 0.00 | 75 | 1014.7 |
| 20260901234508 | 83 | 231 | 0.0 | 0.0 | 0.00 | 0.00 | 0.00 | 74 | 1014.7 |
| 20260901234103 | 84 | 231 | 0.0 | 0.0 | 0.00 | 0.00 | 0.00 | 74 | 1014.7 |
| 20260901233504 | 84 | 231 | 0.0 | 0.0 | 0.00 | 0.00 | 0.00 | 73 | 1014.7 |
| 20260901233012 | 84 | 231 | 0.0 | 0.0 | 0.00 | 0.00 | 0.00 | 73 | 1014.7 |
| 20260901232603 | 85 | 231 | 0.0 | 0.0 | 0.00 | 0.00 | 0.00 | 72 | 1014.8 |
| 20260901232003 | 85 | 231 | 0.0 | 0.0 | 0.00 | 0.00 | 0.00 | 70 | 1014.9 |
| 20260901231509 | 85 | 231 | 0.0 | 0.0 | 0.00 | 0.00 | 0.00 | 69 | 1014.8 |
| 20260901231104 | 86 | 231 | 0.0 | 0.0 | 0.00 | 0.00 | 0.00 | 69 | 1014.9 |
| 20260901230503 | 86 | 231 | 0.0 | 0.0 | 0.00 | 0.00 | 0.00 | 67 | 1015.0 |
| 20260901230016 | 86 | 231 | 0.0 | 0.0 | 0.00 | 0.00 | 0.00 | 67 | 1014.9 |
| 20260901225603 | 87 | 231 | 0.0 | 0.0 | 0.00 | 0.00 | 0.00 | 66 | 1015.0 |
| 20260901225002 | 87 | 231 | 0.0 | 0.0 | 0.00 | 0.00 | 0.00 | 66 | 1015.0 |
| 20260901224509 | 87 | 231 | 0.0 | 0.0 | 0.00 | 0.00 | 0.00 | 64 | 1015.0 |
| 20260901224103 | 88 | 231 | 0.0 | 0.0 | 0.00 | 0.00 | 0.00 | 63 | 1015.0 |
| 20260901223502 | 88 | 231 | 0.0 | 0.9 | 0.00 | 0.00 | 0.00 | 64 | 1015.0 |
| 20260901223023 | 89 | 231 | 0.0 | 0.9 | 0.00 | 0.00 | 0.00 | 63 | 1014.9 |
| 20260901222604 | 89 | 243 | 0.0 | 0.9 | 0.00 | 0.00 | 0.00 | 62 | 1014.9 |
| 20260901222002 | 89 | 245 | 0.0 | 4.3 | 0.00 | 0.00 | 0.00 | 59 | 1014.9 |
| 20260901221508 | 90 | 274 | 0.0 | 4.3 | 0.00 | 0.00 | 0.00 | 59 | 1014.8 |
| 20260901221105 | 90 | 335 | 0.0 | 2.6 | 0.00 | 0.00 | 0.00 | 59 | 1014.8 |
| 20260901220502 | 91 | 183 | 0.0 | 2.6 | 0.00 | 0.00 | 0.00 | 56 | 1014.7 |
| 20260901220008 | 91 | 347 | 0.0 | 2.6 | 0.00 | 0.00 | 0.00 | 54 | 1014.7 |
| 20260901215603 | 91 | 3 | 0.9 | 2.6 | 0.00 | 0.00 | 0.00 | 54 | 1014.6 |
| 20260901215002 | 91 | 93 | 0.0 | 1.7 | 0.00 | 0.00 | 0.00 | 50 | 1014.6 |
| 20260901214513 | 91 | 209 | 0.0 | 1.7 | 0.00 | 0.00 | 0.00 | 55 | 1014.6 |
| 20260901214102 | 92 | 288 | 0.0 | 1.7 | 0.00 | 0.00 | 0.00 | 55 | 1014.7 |
| 20260901213502 | 93 | 239 | 0.0 | 3.5 | 0.00 | 0.00 | 0.00 | 55 | 1014.8 |
| 20260901213008 | 94 | 318 | 0.9 | 3.5 | 0.00 | 0.00 | 0.00 | 46 | 1015.0 |
| 20260901212604 | 94 | 46 | 0.0 | 5.2 | 0.00 | 0.00 | 0.00 | 46 | 1015.0 |
| 20260901212002 | 95 | 323 | 0.0 | 5.2 | 0.00 | 0.00 | 0.00 | 45 | 1014.9 |
| 20260901211520 | 95 | 4 | 0.0 | 2.6 | 0.00 | 0.00 | 0.00 | 46 | 1015.0 |
| 20260901211102 | 96 | 315 | 0.0 | 2.6 | 0.00 | 0.00 | 0.00 | 42 | 1015.0 |
| 20260901210502 | 96 | 34 | 0.9 | 3.5 | 0.00 | 0.00 | 0.00 | 42 | 1015.0 |
| 20260901210009 | 96 | 360 | 0.0 | 3.5 | 0.00 | 0.00 | 0.00 | 41 | 1014.9 |
| 20260901205602 | 97 | 295 | 1.7 | 2.6 | 0.00 | 0.00 | 0.00 | 43 | 1014.9 |
| 20260901205002 | 97 | 155 | 0.0 | 3.5 | 0.00 | 0.00 | 0.00 | 40 | 1014.9 |
| 20260901204513 | 97 | 346 | 0.0 | 3.5 | 0.00 | 0.00 | 0.00 | 42 | 1015.0 |
| 20260901204102 | 97 | 11 | 0.0 | 1.7 | 0.00 | 0.00 | 0.00 | 45 | 1015.0 |
| 20260901203503 | 97 | 79 | 0.0 | 1.7 | 0.00 | 0.00 | 0.00 | 44 | 1015.0 |
| 20260901203009 | 97 | 305 | 0.0 | 3.5 | 0.00 | 0.00 | 0.00 | 44 | 1015.0 |
| 20260901202603 | 97 | 342 | 0.9 | 3.5 | 0.00 | 0.00 | 0.00 | 42 | 1015.1 |
| 20260901202003 | 97 | 136 | 0.0 | 2.6 | 0.00 | 0.00 | 0.00 | 44 | 1015.1 |
| 20260901201509 | 97 | 44 | 0.0 | 3.5 | 0.00 | 0.00 | 0.00 | 41 | 1015.2 |
| 20260901201103 | 97 | 8 | 0.0 | 3.5 | 0.00 | 0.00 | 0.00 | 43 | 1015.2 |
| 20260901200502 | 97 | 152 | 0.0 | 5.2 | 0.00 | 0.00 | 0.00 | 44 | 1015.3 |
| 20260901200032 | 97 | 306 | 0.0 | 5.2 | 0.00 | 0.00 | 0.00 | 42 | 1015.3 |
| 20260901195602 | 96 | 347 | 0.9 | 5.2 | 0.00 | 0.00 | 0.00 | 42 | 1015.3 |
| 20260901195003 | 95 | 51 | 0.0 | 0.9 | 0.00 | 0.00 | 0.00 | 44 | 1015.3 |
| 20260901194509 | 95 | 149 | 0.0 | 0.0 | 0.00 | 0.00 | 0.00 | 48 | 1015.4 |
| 20260901194102 | 95 | 135 | 0.0 | 0.9 | 0.00 | 0.00 | 0.00 | 51 | 1015.5 |
| 20260901193503 | 96 | 133 | 0.0 | 2.6 | 0.00 | 0.00 | 0.00 | 50 | 1015.4 |
| 20260901193009 | 97 | 4 | 0.0 | 2.6 | 0.00 | 0.00 | 0.00 | 45 | 1015.5 |
| 20260901192606 | 97 | 253 | 0.0 | 0.9 | 0.00 | 0.00 | 0.00 | 43 | 1015.5 |
| 20260901192003 | 97 | 176 | 0.0 | 3.5 | 0.00 | 0.00 | 0.00 | 42 | 1015.5 |
| 20260901191509 | 97 | 322 | 0.9 | 6.1 | 0.00 | 0.00 | 0.00 | 45 | 1015.7 |
| 20260901191103 | 96 | 347 | 0.9 | 6.1 | 0.00 | 0.00 | 0.00 | 45 | 1015.7 |
| 20260901190502 | 95 | 197 | 0.0 | 5.2 | 0.00 | 0.00 | 0.00 | 48 | 1015.8 |
| 20260901190009 | 95 | 184 | 0.9 | 5.2 | 0.00 | 0.00 | 0.00 | 49 | 1015.8 |
| 20260901185603 | 95 | 217 | 0.9 | 4.3 | 0.00 | 0.00 | 0.00 | 49 | 1016.0 |
| 20260901185003 | 95 | 184 | 0.0 | 4.3 | 0.00 | 0.00 | 0.00 | 51 | 1016.0 |
| 20260901184510 | 94 | 137 | 0.0 | 2.6 | 0.00 | 0.00 | 0.00 | 55 | 1016.1 |
| 20260901184103 | 94 | 183 | 0.0 | 5.2 | 0.00 | 0.00 | 0.00 | 49 | 1016.2 |
| 20260901183501 | 94 | 349 | 0.0 | 2.6 | 0.00 | 0.00 | 0.00 | 46 | 1016.1 |
| 20260901183009 | 95 | 125 | 0.0 | 4.3 | 0.00 | 0.00 | 0.00 | 51 | 1016.2 |
| 20260901182602 | 95 | 146 | 0.0 | 4.3 | 0.00 | 0.00 | 0.00 | 51 | 1016.2 |
| 20260901182003 | 96 | 323 | 0.9 | 3.5 | 0.00 | 0.00 | 0.00 | 51 | 1016.2 |
| 20260901181509 | 96 | 302 | 0.0 | 3.5 | 0.00 | 0.00 | 0.00 | 48 | 1016.2 |
| 20260901181102 | 96 | 348 | 0.0 | 1.7 | 0.00 | 0.00 | 0.00 | 47 | 1016.2 |
| 20260901180502 | 96 | 341 | 0.0 | 4.3 | 0.00 | 0.00 | 0.00 | 49 | 1016.3 |
| 20260901180023 | 95 | 340 | 0.9 | 4.3 | 0.00 | 0.00 | 0.00 | 47 | 1016.1 |
| 20260901175605 | 95 | 145 | 0.0 | 4.3 | 0.00 | 0.00 | 0.00 | 47 | 1016.2 |
| 20260901175002 | 95 | 152 | 0.0 | 3.5 | 0.00 | 0.00 | 0.00 | 50 | 1016.3 |
| 20260901174509 | 95 | 32 | 0.0 | 3.5 | 0.00 | 0.00 | 0.00 | 49 | 1016.4 |
| 20260901174103 | 95 | 195 | 0.0 | 1.7 | 0.00 | 0.00 | 0.00 | 48 | 1016.4 |
| 20260901173503 | 95 | 201 | 0.0 | 4.3 | 0.00 | 0.00 | 0.00 | 54 | 1016.4 |
| 20260901173009 | 95 | 299 | 0.0 | 3.5 | 0.00 | 0.00 | 0.00 | 54 | 1016.4 |
| 20260901172602 | 94 | 311 | 0.9 | 3.5 | 0.00 | 0.00 | 0.00 | 54 | 1016.4 |
| 20260901172003 | 94 | 161 | 0.0 | 2.6 | 0.00 | 0.00 | 0.00 | 52 | 1016.5 |
| 20260901171509 | 94 | 39 | 0.0 | 5.2 | 0.00 | 0.00 | 0.00 | 50 | 1016.4 |
| 20260901171103 | 94 | 351 | 1.7 | 5.2 | 0.00 | 0.00 | 0.00 | 52 | 1016.5 |
| 20260901170503 | 94 | 231 | 0.0 | 5.2 | 0.00 | 0.00 | 0.00 | 54 | 1016.5 |
| 20260901170013 | 94 | 350 | 0.0 | 5.2 | 0.00 | 0.00 | 0.00 | 54 | 1016.6 |
| 20260901165605 | 94 | 317 | 1.7 | 5.2 | 0.00 | 0.00 | 0.00 | 51 | 1016.7 |
| 20260901165002 | 93 | 154 | 0.0 | 5.2 | 0.00 | 0.00 | 0.00 | 53 | 1016.7 |
| 20260901164513 | 93 | 21 | 1.7 | 4.3 | 0.00 | 0.00 | 0.00 | 55 | 1016.8 |
| 20260901164103 | 92 | 135 | 0.0 | 1.7 | 0.00 | 0.00 | 0.00 | 55 | 1016.8 |
| 20260901163502 | 92 | 154 | 0.0 | 5.2 | 0.00 | 0.00 | 0.00 | 55 | 1016.9 |
| 20260901163017 | 92 | 171 | 0.0 | 5.2 | 0.00 | 0.00 | 0.00 | 56 | 1016.9 |
| 20260901162603 | 92 | 3 | 0.0 | 4.3 | 0.00 | 0.00 | 0.00 | 54 | 1016.9 |
| 20260901162002 | 92 | 347 | 0.0 | 4.3 | 0.00 | 0.00 | 0.00 | 57 | 1017.1 |
| 20260901161509 | 92 | 349 | 0.9 | 4.3 | 0.00 | 0.00 | 0.00 | 58 | 1017.1 |
| 20260901161103 | 91 | 332 | 0.0 | 2.6 | 0.00 | 0.00 | 0.00 | 58 | 1017.1 |
| 20260901160503 | 91 | 3 | 0.0 | 2.6 | 0.00 | 0.00 | 0.00 | 62 | 1017.2 |
| 20260901160010 | 91 | 218 | 0.0 | 0.9 | 0.00 | 0.00 | 0.00 | 61 | 1017.3 |
| 20260901155602 | 90 | 284 | 0.0 | 0.9 | 0.00 | 0.00 | 0.00 | 63 | 1017.4 |
| 20260901155003 | 90 | 347 | 0.0 | 0.9 | 0.00 | 0.00 | 0.00 | 65 | 1017.5 |
| 20260901154510 | 90 | 33 | 0.0 | 4.3 | 0.00 | 0.00 | 0.00 | 65 | 1017.5 |
| 20260901154102 | 90 | 354 | 0.0 | 4.3 | 0.00 | 0.00 | 0.00 | 64 | 1017.7 |
| 20260901153504 | 89 | 347 | 0.0 | 0.9 | 0.00 | 0.00 | 0.00 | 64 | 1017.7 |
| 20260901153009 | 89 | 53 | 0.0 | 4.3 | 0.00 | 0.00 | 0.00 | 64 | 1017.7 |
| 20260901152603 | 89 | 354 | 0.0 | 4.3 | 0.00 | 0.00 | 0.00 | 66 | 1017.8 |
| 20260901152002 | 88 | 17 | 0.0 | 0.9 | 0.00 | 0.00 | 0.00 | 66 | 1017.8 |
| 20260901151509 | 87 | 24 | 0.0 | 3.5 | 0.00 | 0.00 | 0.00 | 68 | 1017.8 |
| 20260901151105 | 87 | 7 | 0.0 | 3.5 | 0.00 | 0.00 | 0.00 | 70 | 1017.9 |
| 20260901150503 | 86 | 20 | 0.0 | 0.9 | 0.00 | 0.00 | 0.00 | 71 | 1017.9 |
| 20260901150009 | 85 | 97 | 0.0 | 1.7 | 0.00 | 0.00 | 0.00 | 73 | 1017.9 |
| 20260901145605 | 84 | 349 | 0.0 | 1.7 | 0.00 | 0.00 | 0.00 | 73 | 1018.0 |
| 20260901145003 | 84 | 191 | 0.0 | 0.0 | 0.00 | 0.00 | 0.00 | 77 | 1017.9 |
| 20260901144509 | 83 | 5 | 0.0 | 0.0 | 0.00 | 0.00 | 0.00 | 76 | 1018.0 |
| 20260901144102 | 83 | 18 | 0.0 | 0.0 | 0.00 | 0.00 | 0.00 | 78 | 1018.0 |
| 20260901143502 | 82 | 15 | 0.0 | 0.0 | 0.00 | 0.00 | 0.00 | 77 | 1018.0 |
| 20260901143014 | 82 | 325 | 0.0 | 0.0 | 0.00 | 0.00 | 0.00 | 78 | 1017.9 |
| 20260901142603 | 82 | 300 | 0.0 | 0.0 | 0.00 | 0.00 | 0.00 | 78 | 1018.0 |
| 20260901142002 | 81 | 288 | 0.0 | 0.9 | 0.00 | 0.00 | 0.00 | 80 | 1018.0 |
| 20260901141508 | 81 | 20 | 0.0 | 0.9 | 0.00 | 0.00 | 0.00 | 81 | 1018.0 |
| 20260901141103 | 80 | 349 | 0.0 | 0.9 | 0.00 | 0.00 | 0.00 | 82 | 1018.0 |
| 20260901140503 | 80 | 330 | 0.0 | 0.0 | 0.00 | 0.00 | 0.00 | 83 | 1017.9 |
| 20260901140010 | 79 | 348 | 0.0 | 0.0 | 0.00 | 0.00 | 0.00 | 85 | 1017.9 |
| 20260901135604 | 78 | 301 | 0.0 | 0.0 | 0.00 | 0.00 | 0.00 | 86 | 1017.9 |
| 20260901135002 | 78 | 323 | 0.0 | 0.0 | 0.00 | 0.00 | 0.00 | 87 | 1017.8 |
| 20260901134509 | 77 | 341 | 0.0 | 0.0 | 0.00 | 0.00 | 0.00 | 89 | 1017.9 |
| 20260901134102 | 77 | 212 | 0.0 | 0.0 | 0.00 | 0.00 | 0.00 | 88 | 1017.8 |
| 20260901133503 | 76 | 338 | 0.0 | 0.0 | 0.00 | 0.00 | 0.00 | 90 | 1017.9 |
| 20260901133009 | 76 | 338 | 0.0 | 0.0 | 0.00 | 0.00 | 0.00 | 90 | 1017.9 |
| 20260901132602 | 76 | 356 | 0.0 | 0.9 | 0.00 | 0.00 | 0.00 | 92 | 1017.9 |
| 20260901132001 | 75 | 15 | 0.0 | 0.9 | 0.00 | 0.00 | 0.00 | 91 | 1017.9 |
| 20260901131514 | 75 | 339 | 0.0 | 1.7 | 0.00 | 0.00 | 0.00 | 93 | 1017.9 |
| 20260901131104 | 75 | 1 | 0.0 | 1.7 | 0.00 | 0.00 | 0.00 | 94 | 1017.9 |
| 20260901130503 | 74 | 339 | 0.0 | 0.0 | 0.00 | 0.00 | 0.00 | 95 | 1017.9 |
| 20260901130009 | 74 | 356 | 0.0 | 0.0 | 0.00 | 0.00 | 0.00 | 96 | 1017.8 |
| 20260901125602 | 74 | 259 | 0.0 | 0.0 | 0.00 | 0.00 | 0.00 | 96 | 1017.9 |
| 20260901125002 | 73 | 259 | 0.0 | 0.0 | 0.00 | 0.00 | 0.00 | 97 | 1017.9 |
| 20260901124509 | 73 | 259 | 0.0 | 0.0 | 0.00 | 0.00 | 0.00 | 97 | 1017.9 |
| 20260901124105 | 73 | 259 | 0.0 | 0.0 | 0.00 | 0.00 | 0.00 | 97 | 1017.9 |
| 20260901123502 | 72 | 259 | 0.0 | 0.0 | 0.00 | 0.00 | 0.00 | 97 | 1017.9 |
| 20260901123010 | 72 | 259 | 0.0 | 0.9 | 0.00 | 0.00 | 0.00 | 98 | 1017.9 |
| 20260901122603 | 71 | 259 | 0.0 | 0.9 | 0.00 | 0.00 | 0.00 | 98 | 1017.9 |
| 20260901122002 | 71 | 231 | 0.0 | 0.0 | 0.00 | 0.00 | 0.00 | 98 | 1017.9 |
| 20260901121509 | 70 | 231 | 0.0 | 0.0 | 0.00 | 0.00 | 0.00 | 97 | 1017.8 |
| 20260901121102 | 70 | 231 | 0.0 | 0.0 | 0.00 | 0.00 | 0.00 | 97 | 1017.8 |
| 20260901120502 | 70 | 231 | 0.0 | 0.0 | 0.00 | 0.00 | 0.00 | 97 | 1017.8 |
| 20260901120010 | 70 | 231 | 0.0 | 0.0 | 0.00 | 0.00 | 0.00 | 97 | 1017.8 |
| 20260901115602 | 69 | 231 | 0.0 | 0.0 | 0.00 | 0.00 | 0.00 | 97 | 1017.8 |
| 20260901115003 | 69 | 231 | 0.0 | 0.0 | 0.00 | 0.00 | 0.00 | 97 | 1017.6 |
| 20260901114510 | 69 | 231 | 0.0 | 0.0 | 0.00 | 0.00 | 0.00 | 97 | 1017.7 |
| 20260901114102 | 69 | 231 | 0.0 | 0.0 | 0.00 | 0.00 | 0.00 | 97 | 1017.6 |
| 20260901113502 | 69 | 231 | 0.0 | 0.0 | 0.00 | 0.00 | 0.00 | 97 | 1017.5 |
| 20260901113009 | 69 | 231 | 0.0 | 0.0 | 0.00 | 0.00 | 0.00 | 97 | 1017.4 |
| 20260901112601 | 68 | 231 | 0.0 | 0.0 | 0.00 | 0.00 | 0.00 | 97 | 1017.4 |
| 20260901112002 | 68 | 231 | 0.0 | 0.0 | 0.00 | 0.00 | 0.00 | 97 | 1017.3 |
| 20260901111508 | 68 | 231 | 0.0 | 0.0 | 0.00 | 0.00 | 0.00 | 97 | 1017.3 |
| 20260901111102 | 68 | 231 | 0.0 | 0.0 | 0.00 | 0.00 | 0.00 | 96 | 1017.3 |
| 20260901110502 | 68 | 231 | 0.0 | 0.0 | 0.00 | 0.00 | 0.00 | 96 | 1017.2 |
| 20260901110008 | 68 | 231 | 0.0 | 0.0 | 0.00 | 0.00 | 0.00 | 96 | 1017.1 |
| 20260901105602 | 68 | 231 | 0.0 | 0.0 | 0.00 | 0.00 | 0.00 | 96 | 1017.1 |
| 20260901105003 | 68 | 231 | 0.0 | 0.0 | 0.00 | 0.00 | 0.00 | 96 | 1017.0 |
| 20260901104517 | 68 | 231 | 0.0 | 0.0 | 0.00 | 0.00 | 0.00 | 96 | 1016.9 |
| 20260901104103 | 68 | 231 | 0.0 | 0.0 | 0.00 | 0.00 | 0.00 | 96 | 1016.9 |
| 20260901103503 | 68 | 231 | 0.0 | 0.0 | 0.00 | 0.00 | 0.00 | 96 | 1016.9 |
| 20260901103008 | 68 | 231 | 0.0 | 0.0 | 0.00 | 0.00 | 0.00 | 96 | 1016.9 |
| 20260901102603 | 68 | 231 | 0.0 | 0.0 | 0.00 | 0.00 | 0.00 | 96 | 1016.9 |
| 20260901102003 | 68 | 231 | 0.0 | 0.0 | 0.00 | 0.00 | 0.00 | 96 | 1016.8 |
| 20260901101509 | 68 | 231 | 0.0 | 0.0 | 0.00 | 0.00 | 0.00 | 96 | 1016.7 |
| 20260901101105 | 68 | 231 | 0.0 | 0.0 | 0.00 | 0.00 | 0.00 | 96 | 1016.8 |
| 20260901100504 | 68 | 231 | 0.0 | 0.0 | 0.00 | 0.00 | 0.00 | 96 | 1016.9 |
| 20260901100010 | 68 | 231 | 0.0 | 0.0 | 0.00 | 0.00 | 0.00 | 96 | 1016.9 |
| 20260901095603 | 68 | 231 | 0.0 | 0.0 | 0.00 | 0.00 | 0.00 | 96 | 1016.8 |
| 20260901095004 | 69 | 231 | 0.0 | 0.0 | 0.00 | 0.00 | 0.00 | 96 | 1016.7 |
| 20260901094509 | 69 | 231 | 0.0 | 0.0 | 0.00 | 0.00 | 0.00 | 96 | 1016.7 |
| 20260901094105 | 69 | 231 | 0.0 | 0.0 | 0.00 | 0.00 | 0.00 | 96 | 1016.8 |
| 20260901093504 | 69 | 231 | 0.0 | 0.0 | 0.00 | 0.00 | 0.00 | 96 | 1016.8 |
| 20260901093009 | 69 | 231 | 0.0 | 0.0 | 0.00 | 0.00 | 0.00 | 96 | 1016.8 |
| 20260901092603 | 69 | 231 | 0.0 | 0.0 | 0.00 | 0.00 | 0.00 | 96 | 1016.8 |
| 20260901092003 | 69 | 231 | 0.0 | 0.0 | 0.00 | 0.00 | 0.00 | 96 | 1016.7 |
| 20260901091509 | 69 | 231 | 0.0 | 0.0 | 0.00 | 0.00 | 0.00 | 96 | 1016.8 |
| 20260901091102 | 69 | 231 | 0.0 | 0.0 | 0.00 | 0.00 | 0.00 | 96 | 1016.8 |
| 20260901090503 | 69 | 231 | 0.0 | 0.0 | 0.00 | 0.00 | 0.00 | 96 | 1016.8 |
| 20260901090010 | 69 | 231 | 0.0 | 0.0 | 0.00 | 0.00 | 0.00 | 96 | 1016.8 |
| 20260901085603 | 69 | 231 | 0.0 | 0.0 | 0.00 | 0.00 | 0.00 | 96 | 1016.7 |
| 20260901085004 | 69 | 231 | 0.0 | 0.0 | 0.00 | 0.00 | 0.00 | 96 | 1016.8 |
| 20260901084509 | 69 | 231 | 0.0 | 0.0 | 0.00 | 0.00 | 0.00 | 96 | 1017.0 |
| 20260901084104 | 69 | 231 | 0.0 | 0.0 | 0.00 | 0.00 | 0.00 | 96 | 1017.0 |
| 20260901083504 | 69 | 231 | 0.0 | 0.0 | 0.00 | 0.00 | 0.00 | 96 | 1016.9 |
| 20260901083026 | 69 | 231 | 0.0 | 0.0 | 0.00 | 0.00 | 0.00 | 96 | 1016.8 |
| 20260901082604 | 69 | 231 | 0.0 | 0.0 | 0.00 | 0.00 | 0.00 | 96 | 1016.9 |
| 20260901082003 | 69 | 231 | 0.0 | 0.0 | 0.00 | 0.00 | 0.00 | 96 | 1016.8 |
| 20260901081512 | 69 | 231 | 0.0 | 0.0 | 0.00 | 0.00 | 0.00 | 96 | 1016.9 |
| 20260901081105 | 70 | 231 | 0.0 | 0.0 | 0.00 | 0.00 | 0.00 | 95 | 1017.0 |
| 20260901080503 | 70 | 231 | 0.0 | 0.0 | 0.00 | 0.00 | 0.00 | 95 | 1016.9 |
| 20260901080010 | 70 | 231 | 0.0 | 0.0 | 0.00 | 0.00 | 0.00 | 96 | 1016.9 |
| 20260901075604 | 70 | 231 | 0.0 | 0.0 | 0.00 | 0.00 | 0.00 | 96 | 1016.9 |
| 20260901075004 | 70 | 231 | 0.0 | 0.0 | 0.00 | 0.00 | 0.00 | 96 | 1016.9 |
| 20260901074517 | 70 | 231 | 0.0 | 0.0 | 0.00 | 0.00 | 0.00 | 96 | 1017.0 |
| 20260901074103 | 70 | 231 | 0.0 | 0.0 | 0.00 | 0.00 | 0.00 | 96 | 1017.0 |
| 20260901073503 | 70 | 231 | 0.0 | 0.0 | 0.00 | 0.00 | 0.00 | 95 | 1017.1 |
| 20260901073025 | 70 | 231 | 0.0 | 0.0 | 0.00 | 0.00 | 0.00 | 95 | 1017.1 |
| 20260901072606 | 70 | 231 | 0.0 | 0.0 | 0.00 | 0.00 | 0.00 | 95 | 1017.1 |
| 20260901072003 | 70 | 231 | 0.0 | 0.0 | 0.00 | 0.00 | 0.00 | 95 | 1017.1 |
| 20260901071510 | 70 | 231 | 0.0 | 0.0 | 0.00 | 0.00 | 0.00 | 96 | 1017.2 |
| 20260901071103 | 70 | 231 | 0.0 | 0.0 | 0.00 | 0.00 | 0.00 | 96 | 1017.2 |
| 20260901070503 | 70 | 231 | 0.0 | 0.0 | 0.00 | 0.00 | 0.00 | 96 | 1017.2 |
| 20260901070019 | 70 | 231 | 0.0 | 0.0 | 0.00 | 0.00 | 0.00 | 96 | 1017.2 |
| 20260901065604 | 70 | 231 | 0.0 | 0.0 | 0.00 | 0.00 | 0.00 | 96 | 1017.2 |
| 20260901065003 | 70 | 231 | 0.0 | 0.0 | 0.00 | 0.00 | 0.00 | 95 | 1017.2 |
| 20260901064513 | 70 | 231 | 0.0 | 0.0 | 0.00 | 0.00 | 0.00 | 95 | 1017.2 |
| 20260901064104 | 71 | 231 | 0.0 | 0.0 | 0.00 | 0.00 | 0.00 | 95 | 1017.3 |
| 20260901063503 | 71 | 231 | 0.0 | 0.0 | 0.00 | 0.00 | 0.00 | 95 | 1017.4 |
| 20260901063009 | 71 | 231 | 0.0 | 0.0 | 0.00 | 0.00 | 0.00 | 95 | 1017.3 |
| 20260901062605 | 71 | 231 | 0.0 | 0.0 | 0.00 | 0.00 | 0.00 | 95 | 1017.4 |
| 20260901062004 | 71 | 231 | 0.0 | 0.0 | 0.00 | 0.00 | 0.00 | 95 | 1017.4 |
| 20260901061509 | 71 | 231 | 0.0 | 0.0 | 0.00 | 0.00 | 0.00 | 95 | 1017.4 |
| 20260901061105 | 71 | 231 | 0.0 | 0.0 | 0.00 | 0.00 | 0.00 | 95 | 1017.4 |
| 20260901060503 | 71 | 231 | 0.0 | 0.0 | 0.00 | 0.00 | 0.00 | 95 | 1017.5 |
| 20260901060011 | 71 | 231 | 0.0 | 0.0 | 0.00 | 0.00 | 0.00 | 95 | 1017.4 |
| 20260901055605 | 71 | 231 | 0.0 | 0.0 | 0.00 | 0.00 | 0.00 | 95 | 1017.4 |
| 20260901055003 | 71 | 231 | 0.0 | 0.0 | 0.00 | 0.00 | 0.00 | 95 | 1017.5 |
| 20260901054510 | 71 | 231 | 0.0 | 0.0 | 0.00 | 0.00 | 0.00 | 95 | 1017.4 |
| 20260901054107 | 71 | 231 | 0.0 | 0.0 | 0.00 | 0.00 | 0.00 | 95 | 1017.5 |
| 20260901053503 | 71 | 231 | 0.0 | 0.0 | 0.00 | 0.00 | 0.00 | 95 | 1017.5 |
| 20260901053010 | 71 | 231 | 0.0 | 0.0 | 0.00 | 0.00 | 0.00 | 95 | 1017.5 |
| 20260901052606 | 71 | 231 | 0.0 | 0.0 | 0.00 | 0.00 | 0.00 | 95 | 1017.5 |
| 20260901052002 | 71 | 231 | 0.0 | 0.0 | 0.00 | 0.00 | 0.00 | 95 | 1017.6 |
| 20260901051511 | 71 | 231 | 0.0 | 0.0 | 0.00 | 0.00 | 0.00 | 95 | 1017.6 |
| 20260901051009 | 71 | 231 | 0.0 | 0.0 | 0.00 | 0.00 | 0.00 | 95 | 1017.6 |
| 20260901050605 | 71 | 231 | 0.0 | 0.0 | 0.00 | 0.00 | 0.00 | 95 | 1017.6 |
| 20260901050004 | 71 | 231 | 0.0 | 0.0 | 0.00 | 0.00 | 0.00 | 95 | 1017.5 |
| 20260901045509 | 71 | 231 | 0.0 | 0.0 | 0.00 | 0.00 | 0.00 | 95 | 1017.7 |
| 20260901045104 | 71 | 231 | 0.0 | 0.0 | 0.00 | 0.00 | 0.00 | 94 | 1017.7 |
| 20260901044505 | 72 | 231 | 0.0 | 0.0 | 0.00 | 0.00 | 0.00 | 94 | 1017.7 |
| 20260901044010 | 72 | 231 | 0.0 | 0.0 | 0.00 | 0.00 | 0.00 | 94 | 1017.7 |
| 20260901043604 | 72 | 231 | 0.0 | 0.0 | 0.00 | 0.00 | 0.00 | 94 | 1017.7 |
| 20260901043004 | 72 | 231 | 0.0 | 0.0 | 0.00 | 0.00 | 0.00 | 95 | 1017.6 |
| 20260901042509 | 72 | 231 | 0.0 | 0.0 | 0.00 | 0.00 | 0.00 | 94 | 1017.6 |
| 20260901042103 | 72 | 231 | 0.0 | 0.0 | 0.00 | 0.00 | 0.00 | 94 | 1017.6 |
| 20260901041503 | 72 | 231 | 0.0 | 0.0 | 0.00 | 0.00 | 0.00 | 94 | 1017.6 |
| 20260901041003 | 72 | 231 | 0.0 | 0.0 | 0.00 | 0.00 | 0.00 | 94 | 1017.5 |
| 20260901040503 | 72 | 231 | 0.0 | 0.0 | 0.00 | 0.00 | 0.00 | 94 | 1017.4 |
| 20260901040009 | 72 | 231 | 0.0 | 0.0 | 0.00 | 0.00 | 0.00 | 94 | 1017.5 |
| 20260901035604 | 72 | 231 | 0.0 | 0.0 | 0.00 | 0.00 | 0.00 | 94 | 1017.5 |
| 20260901035002 | 72 | 231 | 0.0 | 0.0 | 0.00 | 0.00 | 0.00 | 94 | 1017.4 |
| 20260901034516 | 72 | 231 | 0.0 | 0.0 | 0.00 | 0.00 | 0.00 | 94 | 1017.4 |
| 20260901034103 | 72 | 231 | 0.0 | 0.0 | 0.00 | 0.00 | 0.00 | 94 | 1017.4 |
| 20260901033503 | 72 | 231 | 0.0 | 0.0 | 0.00 | 0.00 | 0.00 | 94 | 1017.4 |
| 20260901033010 | 72 | 231 | 0.0 | 0.0 | 0.00 | 0.00 | 0.00 | 94 | 1017.4 |
| 20260901032603 | 72 | 231 | 0.0 | 0.0 | 0.00 | 0.00 | 0.00 | 94 | 1017.5 |
| 20260901032003 | 72 | 231 | 0.0 | 0.0 | 0.00 | 0.00 | 0.00 | 94 | 1017.5 |
| 20260901031515 | 73 | 231 | 0.0 | 0.0 | 0.00 | 0.00 | 0.00 | 94 | 1017.4 |
| 20260901031105 | 73 | 231 | 0.0 | 0.0 | 0.00 | 0.00 | 0.00 | 94 | 1017.4 |
| 20260901030503 | 73 | 231 | 0.0 | 0.0 | 0.00 | 0.00 | 0.00 | 94 | 1017.3 |
| 20260901030017 | 73 | 231 | 0.0 | 0.0 | 0.00 | 0.00 | 0.00 | 94 | 1017.5 |
| 20260901025603 | 73 | 231 | 0.0 | 0.0 | 0.00 | 0.00 | 0.00 | 94 | 1017.5 |
| 20260901025004 | 73 | 231 | 0.0 | 0.0 | 0.00 | 0.00 | 0.00 | 93 | 1017.5 |
| 20260901024521 | 73 | 231 | 0.0 | 0.0 | 0.00 | 0.00 | 0.00 | 93 | 1017.4 |
| 20260901024106 | 73 | 231 | 0.0 | 0.0 | 0.00 | 0.00 | 0.00 | 93 | 1017.4 |
| 20260901023503 | 73 | 231 | 0.0 | 0.0 | 0.00 | 0.00 | 0.00 | 93 | 1017.5 |
| 20260901023010 | 73 | 231 | 0.0 | 0.0 | 0.00 | 0.00 | 0.00 | 93 | 1017.4 |
| 20260901022603 | 73 | 231 | 0.0 | 0.0 | 0.00 | 0.00 | 0.00 | 93 | 1017.4 |